TimeCST,TemperatureF,Dew PointF,Humidity,Sea Level PressureIn,VisibilityMPH,Wind Direction,Wind SpeedMPH,Gust SpeedMPH,PrecipitationIn,Events,Conditions,WindDirDegrees,DateUTC
12:15 AM,28.4,19.9,71,30.23,10.0,Calm,Calm,-,N/A,,Clear,0,2013-01-15 06:15:00
12:35 AM,27.9,19.8,72,30.23,10.0,North,3.5,-,N/A,,Clear,360,2013-01-15 06:35:00
12:55 AM,26.1,19.4,76,30.23,10.0,North,4.6,-,N/A,,Clear,350,2013-01-15 06:55:00
1:15 AM,27.9,19.4,71,30.23,10.0,North,4.6,-,N/A,,Clear,360,2013-01-15 07:15:00
1:35 AM,27.0,19.4,73,30.23,10.0,North,5.8,-,N/A,,Clear,360,2013-01-15 07:35:00
1:55 AM,27.9,19.4,71,30.22,10.0,North,4.6,-,N/A,,Clear,10,2013-01-15 07:55:00
2:15 AM,27.3,19.4,72,30.22,10.0,North,5.8,-,N/A,,Clear,350,2013-01-15 08:15:00
2:35 AM,27.1,19.0,72,30.21,10.0,North,6.9,-,N/A,,Clear,10,2013-01-15 08:35:00
3:15 AM,26.6,19.0,73,30.22,10.0,North,5.8,-,N/A,,Scattered Clouds,350,2013-01-15 09:15:00
3:35 AM,26.2,18.9,74,30.23,10.0,NNW,4.6,-,N/A,,Scattered Clouds,330,2013-01-15 09:35:00
3:55 AM,27.0,19.6,74,30.23,10.0,NNW,4.6,-,N/A,,Mostly Cloudy,340,2013-01-15 09:55:00
4:15 AM,27.5,20.3,74,30.23,10.0,NNW,4.6,-,N/A,,Overcast,340,2013-01-15 10:15:00
4:55 AM,28.4,21.0,74,30.18,10.0,NNE,8.1,-,N/A,,Mostly Cloudy,20,2013-01-15 10:55:00
5:15 AM,29.3,21.0,71,30.19,10.0,North,6.9,-,N/A,,Overcast,10,2013-01-15 11:15:00
5:35 AM,29.7,21.0,70,30.19,10.0,North,3.5,-,N/A,,Overcast,360,2013-01-15 11:35:00
5:55 AM,29.7,21.2,71,30.16,10.0,NNE,5.8,-,N/A,,Overcast,20,2013-01-15 11:55:00
6:15 AM,30.0,20.8,69,30.15,10.0,North,8.1,-,N/A,,Overcast,10,2013-01-15 12:15:00
6:35 AM,30.2,20.1,66,30.14,10.0,NNE,6.9,-,N/A,,Overcast,20,2013-01-15 12:35:00
6:55 AM,31.1,19.9,63,30.20,10.0,NW,4.6,-,N/A,,Overcast,320,2013-01-15 12:55:00
7:15 AM,31.5,19.9,62,30.25,10.0,WSW,3.5,-,N/A,,Overcast,250,2013-01-15 13:15:00
7:35 AM,31.5,20.8,65,30.26,10.0,WNW,6.9,-,N/A,,Overcast,300,2013-01-15 13:35:00
7:55 AM,31.5,20.5,64,30.26,10.0,WNW,4.6,-,N/A,,Overcast,290,2013-01-15 13:55:00
8:15 AM,31.6,20.3,63,30.27,10.0,Calm,Calm,-,N/A,,Overcast,0,2013-01-15 14:15:00
8:35 AM,32.0,18.7,58,30.25,10.0,NNW,4.6,-,N/A,,Overcast,340,2013-01-15 14:35:00
8:55 AM,32.7,17.6,54,30.25,10.0,North,5.8,-,N/A,,Overcast,360,2013-01-15 14:55:00
9:15 AM,32.9,17.1,52,30.24,10.0,NE,5.8,-,N/A,,Overcast,50,2013-01-15 15:15:00
9:35 AM,32.9,18.3,55,30.24,10.0,ENE,5.8,-,N/A,,Overcast,60,2013-01-15 15:35:00
9:55 AM,33.1,18.5,55,30.25,10.0,ENE,6.9,-,N/A,,Overcast,70,2013-01-15 15:55:00
10:15 AM,33.1,19.8,58,30.24,10.0,ENE,5.8,-,N/A,,Overcast,60,2013-01-15 16:15:00
10:35 AM,34.0,23.9,67,30.22,10.0,East,9.2,-,N/A,,Mostly Cloudy,80,2013-01-15 16:35:00
10:55 AM,34.9,23.2,62,30.20,10.0,ENE,11.5,16.1,N/A,,Overcast,60,2013-01-15 16:55:00
11:15 AM,34.2,22.5,62,30.20,10.0,ENE,12.7,-,N/A,,Overcast,60,2013-01-15 17:15:00
11:35 AM,35.1,23.5,63,30.17,10.0,ENE,11.5,17.3,N/A,,Overcast,60,2013-01-15 17:35:00
11:55 AM,35.6,24.8,65,30.16,10.0,ENE,11.5,17.3,N/A,,Overcast,60,2013-01-15 17:55:00
12:15 PM,36.0,25.0,64,30.16,10.0,NE,4.6,-,N/A,,Overcast,50,2013-01-15 18:15:00
12:35 PM,36.7,24.6,62,30.14,10.0,ENE,9.2,-,N/A,,Overcast,60,2013-01-15 18:35:00
12:55 PM,36.7,24.8,62,30.14,10.0,ENE,4.6,-,N/A,,Overcast,60,2013-01-15 18:55:00
1:15 PM,37.2,25.2,62,30.14,10.0,NE,6.9,-,N/A,,Overcast,40,2013-01-15 19:15:00
1:35 PM,37.9,25.7,61,30.14,10.0,NE,5.8,-,N/A,,Overcast,50,2013-01-15 19:35:00
1:55 PM,37.8,25.5,61,30.14,10.0,NE,4.6,-,N/A,,Overcast,40,2013-01-15 19:55:00
2:15 PM,37.8,25.7,62,30.14,10.0,NE,4.6,-,N/A,,Overcast,40,2013-01-15 20:15:00
2:35 PM,38.3,25.5,60,30.14,10.0,North,4.6,-,N/A,,Overcast,10,2013-01-15 20:35:00
2:55 PM,38.1,25.0,59,30.15,10.0,North,5.8,-,N/A,,Overcast,10,2013-01-15 20:55:00
3:15 PM,38.3,25.5,60,30.15,10.0,North,4.6,-,N/A,,Overcast,10,2013-01-15 21:15:00
3:35 PM,38.3,25.2,59,30.15,10.0,NNW,8.1,-,N/A,,Overcast,340,2013-01-15 21:35:00
3:55 PM,38.3,25.2,59,30.16,10.0,North,8.1,-,N/A,,Overcast,350,2013-01-15 21:55:00
4:15 PM,38.3,24.3,57,30.17,10.0,North,8.1,-,N/A,,Overcast,350,2013-01-15 22:15:00
4:35 PM,38.3,23.9,56,30.16,10.0,North,8.1,-,N/A,,Overcast,350,2013-01-15 22:35:00
4:55 PM,37.8,21.4,52,30.17,10.0,North,8.1,-,N/A,,Overcast,360,2013-01-15 22:55:00
5:15 PM,37.9,21.9,53,30.18,10.0,North,9.2,-,N/A,,Overcast,360,2013-01-15 23:15:00
5:35 PM,37.4,22.5,55,30.18,10.0,North,11.5,-,N/A,,Overcast,350,2013-01-15 23:35:00
6:15 PM,37.0,23.9,59,30.18,10.0,NNW,9.2,-,N/A,,Overcast,340,2013-01-16 00:15:00
6:35 PM,36.5,25.0,63,30.17,10.0,North,10.4,16.1,N/A,,Overcast,350,2013-01-16 00:35:00
6:55 PM,35.8,25.2,65,30.17,10.0,North,11.5,19.6,N/A,,Overcast,360,2013-01-16 00:55:00
7:15 PM,35.6,25.5,67,30.19,10.0,North,8.1,-,N/A,,Overcast,350,2013-01-16 01:15:00
7:35 PM,35.4,25.5,67,30.21,10.0,NNW,5.8,-,N/A,,Overcast,340,2013-01-16 01:35:00
7:55 PM,35.1,24.8,66,30.21,10.0,North,10.4,-,N/A,,Overcast,350,2013-01-16 01:55:00
8:15 PM,34.9,24.8,67,30.22,10.0,North,8.1,-,N/A,,Overcast,350,2013-01-16 02:15:00
8:35 PM,34.7,24.3,66,30.21,10.0,North,8.1,-,N/A,,Overcast,360,2013-01-16 02:35:00
8:55 PM,34.0,23.7,66,30.21,10.0,North,6.9,-,N/A,,Overcast,350,2013-01-16 02:55:00
9:15 PM,33.4,23.7,68,30.20,10.0,North,5.8,-,N/A,,Overcast,350,2013-01-16 03:15:00
9:35 PM,32.5,23.4,69,30.21,10.0,NNW,4.6,-,N/A,,Mostly Cloudy,340,2013-01-16 03:35:00
9:55 PM,32.0,23.4,70,30.21,10.0,NNW,4.6,-,N/A,,Mostly Cloudy,340,2013-01-16 03:55:00
10:15 PM,31.1,23.0,72,30.21,10.0,NNW,4.6,-,N/A,,Scattered Clouds,330,2013-01-16 04:15:00
10:35 PM,30.4,23.0,74,30.21,10.0,NW,4.6,-,N/A,,Clear,320,2013-01-16 04:35:00
10:55 PM,29.5,22.6,76,30.20,10.0,NNW,4.6,-,N/A,,Clear,340,2013-01-16 04:55:00
11:15 PM,28.6,22.1,77,30.19,10.0,NNW,5.8,-,N/A,,Scattered Clouds,330,2013-01-16 05:15:00
11:35 PM,28.2,21.4,76,30.19,10.0,NW,5.8,-,N/A,,Clear,320,2013-01-16 05:35:00